Location: Bonaustraße
(48.4603°N, 11.9280°E)
Time: 09:33:34
(UTC+02:00)

STRAND 1 - Pass Details

Date: 30 July 2021
Orbit: 768 x 781 km, 98.4° (Epoch: 27 September)

Event Time Altitude Azimuth Distance (km) Brightness Sun altitude
Rises 22:39:18 0° 358° (N) 3,257 ? -14.4°
Reaches altitude 10° 22:43:18 10° 327° (NNW) 2,322 ? -14.8°
Maximum altitude 22:44:56 12° 308° (NW) 2,212 ? -15.0°
Drops below altitude 10° 22:46:34 10° 289° (WNW) 2,316 ? -15.1°
Sets 22:50:33 0° 258° (WSW) 3,236 ? -15.5°
